Year,Month,Day,Hour,Minute,Value (Times are PST for temperature in C)
2018,10,18,00,00,9.60
2018,10,18,00,01,9.60
2018,10,18,00,02,9.60
2018,10,18,00,03,9.60
2018,10,18,00,04,9.60
2018,10,18,00,05,9.60
2018,10,18,00,06,9.60
2018,10,18,00,07,9.60
2018,10,18,00,08,9.50
2018,10,18,00,09,9.50
2018,10,18,00,10,9.40
2018,10,18,00,11,9.40
2018,10,18,00,12,9.40
2018,10,18,00,13,9.30
2018,10,18,00,14,9.30
2018,10,18,00,15,9.20
2018,10,18,00,16,9.20
2018,10,18,00,17,9.10
2018,10,18,00,18,9.10
2018,10,18,00,19,9.10
2018,10,18,00,20,9.10
2018,10,18,00,21,9.10
2018,10,18,00,22,9.10
2018,10,18,00,23,9.10
2018,10,18,00,24,9.10
2018,10,18,00,25,9.10
2018,10,18,00,26,9.10
2018,10,18,00,27,9.20
2018,10,18,00,28,9.20
2018,10,18,00,29,9.20
2018,10,18,00,30,9.20
2018,10,18,00,31,9.30
2018,10,18,00,32,9.30
2018,10,18,00,33,9.30
2018,10,18,00,34,9.30
2018,10,18,00,35,9.30
2018,10,18,00,36,9.30
2018,10,18,00,37,9.30
2018,10,18,00,38,9.30
2018,10,18,00,39,9.30
2018,10,18,00,40,9.30
2018,10,18,00,41,9.30
2018,10,18,00,42,9.20
2018,10,18,00,43,9.20
2018,10,18,00,44,9.20
2018,10,18,00,45,9.20
2018,10,18,00,46,9.20
2018,10,18,00,47,9.20
2018,10,18,00,48,9.20
2018,10,18,00,49,9.30
2018,10,18,00,50,9.30
2018,10,18,00,51,9.30
2018,10,18,00,52,9.30
2018,10,18,00,53,9.30
2018,10,18,00,54,9.30
2018,10,18,00,55,9.30
2018,10,18,00,56,9.30
2018,10,18,00,57,9.30
2018,10,18,00,58,9.20
2018,10,18,00,59,9.20
2018,10,18,01,00,9.20
2018,10,18,01,01,9.20
2018,10,18,01,02,9.20
2018,10,18,01,03,9.20
2018,10,18,01,04,9.10
2018,10,18,01,05,9.10
2018,10,18,01,06,9.10
2018,10,18,01,07,9.10
2018,10,18,01,08,9.10
2018,10,18,01,09,9.10
2018,10,18,01,10,9.00
2018,10,18,01,11,8.90
2018,10,18,01,12,8.90
2018,10,18,01,13,8.80
2018,10,18,01,14,8.80
2018,10,18,01,15,8.70
2018,10,18,01,16,8.70
2018,10,18,01,17,8.70
2018,10,18,01,18,8.70
2018,10,18,01,19,8.60
2018,10,18,01,20,8.60
2018,10,18,01,21,8.60
2018,10,18,01,22,8.60
2018,10,18,01,23,8.50
2018,10,18,01,24,8.60
2018,10,18,01,25,8.60
2018,10,18,01,26,8.60
2018,10,18,01,27,8.60
2018,10,18,01,28,8.70
2018,10,18,01,29,8.70
2018,10,18,01,30,8.70
2018,10,18,01,31,8.70
2018,10,18,01,32,8.70
2018,10,18,01,33,8.70
2018,10,18,01,34,8.70
2018,10,18,01,35,8.70
2018,10,18,01,36,8.70
2018,10,18,01,37,8.70
2018,10,18,01,38,8.70
2018,10,18,01,39,8.70
2018,10,18,01,40,8.60
2018,10,18,01,41,8.60
2018,10,18,01,42,8.60
2018,10,18,01,43,8.50
2018,10,18,01,44,8.50
2018,10,18,01,45,8.50
2018,10,18,01,46,8.50
2018,10,18,01,47,8.50
2018,10,18,01,48,8.50
2018,10,18,01,49,8.50
2018,10,18,01,50,8.50
2018,10,18,01,51,8.50
2018,10,18,01,52,8.50
2018,10,18,01,53,8.50
2018,10,18,01,54,8.50
2018,10,18,01,55,8.40
2018,10,18,01,56,8.40
2018,10,18,01,57,8.40
2018,10,18,01,58,8.40
2018,10,18,01,59,8.40
2018,10,18,02,00,8.40
2018,10,18,02,01,8.40
2018,10,18,02,02,8.40
2018,10,18,02,03,8.30
2018,10,18,02,04,8.30
2018,10,18,02,05,8.30
2018,10,18,02,06,8.30
2018,10,18,02,07,8.30
2018,10,18,02,08,8.30
2018,10,18,02,09,8.30
2018,10,18,02,10,8.30
2018,10,18,02,11,8.30
2018,10,18,02,12,8.30
2018,10,18,02,13,8.30
2018,10,18,02,14,8.40
2018,10,18,02,15,8.50
2018,10,18,02,16,8.60
2018,10,18,02,17,8.70
2018,10,18,02,18,8.80
2018,10,18,02,19,8.90
2018,10,18,02,20,8.90
2018,10,18,02,21,9.00
2018,10,18,02,22,9.10
2018,10,18,02,23,9.10
2018,10,18,02,24,9.10
2018,10,18,02,25,9.00
2018,10,18,02,26,9.00
2018,10,18,02,27,9.00
2018,10,18,02,28,8.90
2018,10,18,02,29,8.90
2018,10,18,02,30,8.90
2018,10,18,02,31,8.90
2018,10,18,02,32,8.80
2018,10,18,02,33,8.80
2018,10,18,02,34,8.80
2018,10,18,02,35,8.80
2018,10,18,02,36,8.80
2018,10,18,02,37,8.80
2018,10,18,02,38,8.70
2018,10,18,02,39,8.70
2018,10,18,02,40,8.70
2018,10,18,02,41,8.70
2018,10,18,02,42,8.70
2018,10,18,02,43,8.60
2018,10,18,02,44,8.60
2018,10,18,02,45,8.60
2018,10,18,02,46,8.60
2018,10,18,02,47,8.50
2018,10,18,02,48,8.50
2018,10,18,02,49,8.40
2018,10,18,02,50,8.40
2018,10,18,02,51,8.40
2018,10,18,02,52,8.40
2018,10,18,02,53,8.40
2018,10,18,02,54,8.40
2018,10,18,02,55,8.40
2018,10,18,02,56,8.50
2018,10,18,02,57,8.60
2018,10,18,02,58,8.60
2018,10,18,02,59,8.70
2018,10,18,03,00,8.70
2018,10,18,03,01,8.80
2018,10,18,03,02,8.80
2018,10,18,03,03,8.80
2018,10,18,03,04,8.80
2018,10,18,03,05,8.80
2018,10,18,03,06,8.80
2018,10,18,03,07,8.80
2018,10,18,03,08,8.70
2018,10,18,03,09,8.70
2018,10,18,03,10,8.60
2018,10,18,03,11,8.50
2018,10,18,03,12,8.40
2018,10,18,03,13,8.30
2018,10,18,03,14,8.30
2018,10,18,03,15,8.20
2018,10,18,03,16,8.20
2018,10,18,03,17,8.10
2018,10,18,03,18,8.10
2018,10,18,03,19,8.00
2018,10,18,03,20,8.00
2018,10,18,03,21,7.90
2018,10,18,03,22,7.90
2018,10,18,03,23,7.80
2018,10,18,03,24,7.80
2018,10,18,03,25,7.80
2018,10,18,03,26,7.80
2018,10,18,03,27,7.80
2018,10,18,03,28,7.80
2018,10,18,03,29,7.90
2018,10,18,03,30,7.90
2018,10,18,03,31,7.90
2018,10,18,03,32,7.90
2018,10,18,03,33,7.90
2018,10,18,03,34,7.90
2018,10,18,03,35,8.00
2018,10,18,03,36,8.00
2018,10,18,03,37,8.10
2018,10,18,03,38,8.10
2018,10,18,03,39,8.20
2018,10,18,03,40,8.20
2018,10,18,03,41,8.30
2018,10,18,03,42,8.40
2018,10,18,03,43,8.50
2018,10,18,03,44,8.60
2018,10,18,03,45,8.60
2018,10,18,03,46,8.60
2018,10,18,03,47,8.70
2018,10,18,03,48,8.70
2018,10,18,03,49,8.70
2018,10,18,03,50,8.70
2018,10,18,03,51,8.70
2018,10,18,03,52,8.70
2018,10,18,03,53,8.70
2018,10,18,03,54,8.80
2018,10,18,03,55,8.80
2018,10,18,03,56,8.80
2018,10,18,03,57,8.80
2018,10,18,03,58,8.80
2018,10,18,03,59,8.80
2018,10,18,04,00,8.80
2018,10,18,04,01,8.80
2018,10,18,04,02,8.70
2018,10,18,04,03,8.70
2018,10,18,04,04,8.60
2018,10,18,04,05,8.50
2018,10,18,04,06,8.40
2018,10,18,04,07,8.40
2018,10,18,04,08,8.30
2018,10,18,04,09,8.30
2018,10,18,04,10,8.20
2018,10,18,04,11,8.20
2018,10,18,04,12,8.20
2018,10,18,04,13,8.20
2018,10,18,04,14,8.10
2018,10,18,04,15,8.10
2018,10,18,04,16,8.10
2018,10,18,04,17,8.10
2018,10,18,04,18,8.10
2018,10,18,04,19,8.00
2018,10,18,04,20,8.00
2018,10,18,04,21,8.00
2018,10,18,04,22,7.90
2018,10,18,04,23,7.90
2018,10,18,04,24,7.90
2018,10,18,04,25,7.90
2018,10,18,04,26,7.90
2018,10,18,04,27,7.90
2018,10,18,04,28,7.90
2018,10,18,04,29,7.90
2018,10,18,04,30,7.90
2018,10,18,04,31,7.80
2018,10,18,04,32,7.80
2018,10,18,04,33,7.90
2018,10,18,04,34,7.90
2018,10,18,04,35,7.90
2018,10,18,04,36,7.90
2018,10,18,04,37,7.90
2018,10,18,04,38,7.90
2018,10,18,04,39,7.90
2018,10,18,04,40,7.90
2018,10,18,04,41,7.90
2018,10,18,04,42,7.90
2018,10,18,04,43,7.90
2018,10,18,04,44,7.90
2018,10,18,04,45,7.90
2018,10,18,04,46,7.90
2018,10,18,04,47,7.90
2018,10,18,04,48,7.90
2018,10,18,04,49,7.90
2018,10,18,04,50,7.90
2018,10,18,04,51,7.90
2018,10,18,04,52,7.90
2018,10,18,04,53,7.90
2018,10,18,04,54,7.90
2018,10,18,04,55,7.90
2018,10,18,04,56,7.90
2018,10,18,04,57,7.90
2018,10,18,04,58,7.80
2018,10,18,04,59,7.80
2018,10,18,05,00,7.80
2018,10,18,05,01,7.80
2018,10,18,05,02,7.80
2018,10,18,05,03,7.70
2018,10,18,05,04,7.70
2018,10,18,05,05,7.70
2018,10,18,05,06,7.70
2018,10,18,05,07,7.70
2018,10,18,05,08,7.60
2018,10,18,05,09,7.60
2018,10,18,05,10,7.60
2018,10,18,05,11,7.60
2018,10,18,05,12,7.60
2018,10,18,05,13,7.60
2018,10,18,05,14,7.70
2018,10,18,05,15,7.70
2018,10,18,05,16,7.80
2018,10,18,05,17,7.90
2018,10,18,05,18,8.10
2018,10,18,05,19,8.20
2018,10,18,05,20,8.20
2018,10,18,05,21,8.30
2018,10,18,05,22,8.30
2018,10,18,05,23,8.40
2018,10,18,05,24,8.40
2018,10,18,05,25,8.40
2018,10,18,05,26,8.40
2018,10,18,05,27,8.40
2018,10,18,05,28,8.40
2018,10,18,05,29,8.30
2018,10,18,05,30,8.30
2018,10,18,05,31,8.30
2018,10,18,05,32,8.20
2018,10,18,05,33,8.20
2018,10,18,05,34,8.20
2018,10,18,05,35,8.10
2018,10,18,05,36,8.10
2018,10,18,05,37,8.10
2018,10,18,05,38,8.10
2018,10,18,05,39,8.00
2018,10,18,05,40,8.00
2018,10,18,05,41,8.00
2018,10,18,05,42,7.90
2018,10,18,05,43,7.90
2018,10,18,05,44,7.90
2018,10,18,05,45,7.80
2018,10,18,05,46,7.80
2018,10,18,05,47,7.80
2018,10,18,05,48,7.80
2018,10,18,05,49,7.80
2018,10,18,05,50,7.80
2018,10,18,05,51,7.70
2018,10,18,05,52,7.70
2018,10,18,05,53,7.70
2018,10,18,05,54,7.70
2018,10,18,05,55,7.70
2018,10,18,05,56,7.70
2018,10,18,05,57,7.70
2018,10,18,05,58,7.70
2018,10,18,05,59,7.70
2018,10,18,06,00,7.80
2018,10,18,06,01,7.80
2018,10,18,06,02,7.80
2018,10,18,06,03,7.90
2018,10,18,06,04,7.90
2018,10,18,06,05,7.90
2018,10,18,06,06,8.00
2018,10,18,06,07,8.00
2018,10,18,06,08,8.10
2018,10,18,06,09,8.10
2018,10,18,06,10,8.10
2018,10,18,06,11,8.10
2018,10,18,06,12,8.10
2018,10,18,06,13,8.20
2018,10,18,06,14,8.20
2018,10,18,06,15,8.20
2018,10,18,06,16,8.20
2018,10,18,06,17,8.20
2018,10,18,06,18,8.20
2018,10,18,06,19,8.20
2018,10,18,06,20,8.20
2018,10,18,06,21,8.20
2018,10,18,06,22,8.20
2018,10,18,06,23,8.20
2018,10,18,06,24,8.20
2018,10,18,06,25,8.20
2018,10,18,06,26,8.20
2018,10,18,06,27,8.30
2018,10,18,06,28,8.30
2018,10,18,06,29,8.40
2018,10,18,06,30,8.40
2018,10,18,06,31,8.40
2018,10,18,06,32,8.40
2018,10,18,06,33,8.50
2018,10,18,06,34,8.50
2018,10,18,06,35,8.50
2018,10,18,06,36,8.50
2018,10,18,06,37,8.50
2018,10,18,06,38,8.50
2018,10,18,06,39,8.50
2018,10,18,06,40,8.50
2018,10,18,06,41,8.50
2018,10,18,06,42,8.40
2018,10,18,06,43,8.40
2018,10,18,06,44,8.40
2018,10,18,06,45,8.30
2018,10,18,06,46,8.30
2018,10,18,06,47,8.30
2018,10,18,06,48,8.30
2018,10,18,06,49,8.20
2018,10,18,06,50,8.20
2018,10,18,06,51,8.20
2018,10,18,06,52,8.20
2018,10,18,06,53,8.20
2018,10,18,06,54,8.10
2018,10,18,06,55,8.10
2018,10,18,06,56,8.10
2018,10,18,06,57,8.10
2018,10,18,06,58,8.10
2018,10,18,06,59,8.10
2018,10,18,07,00,8.10
2018,10,18,07,01,8.10
2018,10,18,07,02,8.10
2018,10,18,07,03,8.10
2018,10,18,07,04,8.00
2018,10,18,07,05,8.00
2018,10,18,07,06,8.00
2018,10,18,07,07,8.00
2018,10,18,07,08,7.90
2018,10,18,07,09,7.90
2018,10,18,07,10,7.90
2018,10,18,07,11,7.90
2018,10,18,07,12,7.80
2018,10,18,07,13,7.80
2018,10,18,07,14,7.80
2018,10,18,07,15,7.80
2018,10,18,07,16,7.80
2018,10,18,07,17,7.80
2018,10,18,07,18,7.70
2018,10,18,07,19,7.70
2018,10,18,07,20,7.70
2018,10,18,07,21,7.70
2018,10,18,07,22,7.70
2018,10,18,07,23,7.70
2018,10,18,07,24,7.80
2018,10,18,07,25,7.90
2018,10,18,07,26,7.90
2018,10,18,07,27,8.00
2018,10,18,07,28,8.10
2018,10,18,07,29,8.10
2018,10,18,07,30,8.20
2018,10,18,07,31,8.20
2018,10,18,07,32,8.30
2018,10,18,07,33,8.30
2018,10,18,07,34,8.40
2018,10,18,07,35,8.50
2018,10,18,07,36,8.50
2018,10,18,07,37,8.60
2018,10,18,07,38,8.70
2018,10,18,07,39,8.70
2018,10,18,07,40,8.80
2018,10,18,07,41,8.80
2018,10,18,07,42,8.80
2018,10,18,07,43,8.80
2018,10,18,07,44,8.80
2018,10,18,07,45,8.80
2018,10,18,07,46,8.80
2018,10,18,07,47,8.90
2018,10,18,07,48,8.90
2018,10,18,07,49,8.90
2018,10,18,07,50,8.90
2018,10,18,07,51,8.90
2018,10,18,07,52,9.00
2018,10,18,07,53,9.00
2018,10,18,07,54,9.10
2018,10,18,07,55,9.10
2018,10,18,07,56,9.10
2018,10,18,07,57,9.10
2018,10,18,07,58,9.00
2018,10,18,07,59,8.90
2018,10,18,08,00,8.80
2018,10,18,08,01,8.80
2018,10,18,08,02,8.70
2018,10,18,08,03,8.60
2018,10,18,08,04,8.60
2018,10,18,08,05,8.60
2018,10,18,08,06,8.50
2018,10,18,08,07,8.50
2018,10,18,08,08,8.40
2018,10,18,08,09,8.40
2018,10,18,08,10,8.40
2018,10,18,08,11,8.40
2018,10,18,08,12,8.40
2018,10,18,08,13,8.40
2018,10,18,08,14,8.30
2018,10,18,08,15,8.20
2018,10,18,08,16,8.10
2018,10,18,08,17,8.00
2018,10,18,08,18,7.90
2018,10,18,08,19,7.80
2018,10,18,08,20,7.80
2018,10,18,08,21,7.80
2018,10,18,08,22,7.80
2018,10,18,08,23,7.80
2018,10,18,08,24,7.90
2018,10,18,08,25,7.90
2018,10,18,08,26,8.00
2018,10,18,08,27,8.10
2018,10,18,08,28,8.20
2018,10,18,08,29,8.20
2018,10,18,08,30,8.30
2018,10,18,08,31,8.40
2018,10,18,08,32,8.50
2018,10,18,08,33,8.60
2018,10,18,08,34,8.60
2018,10,18,08,35,8.70
2018,10,18,08,36,8.80
2018,10,18,08,37,8.80
2018,10,18,08,38,8.90
2018,10,18,08,39,9.00
2018,10,18,08,40,9.10
2018,10,18,08,41,9.20
2018,10,18,08,42,9.30
2018,10,18,08,43,9.40
2018,10,18,08,44,9.50
2018,10,18,08,45,9.50
2018,10,18,08,46,9.60
2018,10,18,08,47,9.70
2018,10,18,08,48,9.80
2018,10,18,08,49,9.90
2018,10,18,08,50,10.10
2018,10,18,08,51,10.20
2018,10,18,08,52,10.30
2018,10,18,08,53,10.40
2018,10,18,08,54,10.40
2018,10,18,08,55,10.50
2018,10,18,08,56,10.60
2018,10,18,08,57,10.60
2018,10,18,08,58,10.60
2018,10,18,08,59,10.60
2018,10,18,09,00,10.60
2018,10,18,09,01,10.60
2018,10,18,09,02,10.50
2018,10,18,09,03,10.50
2018,10,18,09,04,10.50
2018,10,18,09,05,10.50
2018,10,18,09,06,10.50
2018,10,18,09,07,10.50
2018,10,18,09,08,10.50
2018,10,18,09,09,10.50
2018,10,18,09,10,10.50
2018,10,18,09,11,10.50
2018,10,18,09,12,10.50
2018,10,18,09,13,10.50
2018,10,18,09,14,10.50
2018,10,18,09,15,10.50
2018,10,18,09,16,10.40
2018,10,18,09,17,10.40
2018,10,18,09,18,10.40
2018,10,18,09,19,10.30
2018,10,18,09,20,10.30
2018,10,18,09,21,10.30
2018,10,18,09,22,10.30
2018,10,18,09,23,10.30
2018,10,18,09,24,10.30
2018,10,18,09,25,10.30
2018,10,18,09,26,10.30
2018,10,18,09,27,10.30
2018,10,18,09,28,10.30
2018,10,18,09,29,10.40
2018,10,18,09,30,10.40
2018,10,18,09,31,10.50
2018,10,18,09,32,10.50
2018,10,18,09,33,10.60
2018,10,18,09,34,10.70
2018,10,18,09,35,10.80
2018,10,18,09,36,10.80
2018,10,18,09,37,10.90
2018,10,18,09,38,10.90
2018,10,18,09,39,11.00
2018,10,18,09,40,11.00
2018,10,18,09,41,11.10
2018,10,18,09,42,11.20
2018,10,18,09,43,11.30
2018,10,18,09,44,11.30
2018,10,18,09,45,11.40
2018,10,18,09,46,11.40
2018,10,18,09,47,11.40
2018,10,18,09,48,11.50
2018,10,18,09,49,11.50
2018,10,18,09,50,11.50
2018,10,18,09,51,11.60
2018,10,18,09,52,11.60
2018,10,18,09,53,11.60
2018,10,18,09,54,11.70
2018,10,18,09,55,11.80
2018,10,18,09,56,11.80
2018,10,18,09,57,11.90
2018,10,18,09,58,11.90
2018,10,18,09,59,11.90
2018,10,18,10,00,11.90
2018,10,18,10,01,11.90
2018,10,18,10,02,11.80
2018,10,18,10,03,11.80
2018,10,18,10,04,11.80
2018,10,18,10,05,11.80
2018,10,18,10,06,11.70
2018,10,18,10,07,11.70
2018,10,18,10,08,11.70
2018,10,18,10,09,11.80
2018,10,18,10,10,11.80
2018,10,18,10,11,11.90
2018,10,18,10,12,12.00
2018,10,18,10,13,12.10
2018,10,18,10,14,12.20
2018,10,18,10,15,12.30
2018,10,18,10,16,12.40
2018,10,18,10,17,12.50
2018,10,18,10,18,12.70
2018,10,18,10,19,12.80
2018,10,18,10,20,13.00
2018,10,18,10,21,13.10
2018,10,18,10,22,13.30
2018,10,18,10,23,13.40
2018,10,18,10,24,13.50
2018,10,18,10,25,13.60
2018,10,18,10,26,13.70
2018,10,18,10,27,13.90
2018,10,18,10,28,14.10
2018,10,18,10,29,14.20
2018,10,18,10,30,14.30
2018,10,18,10,31,14.40
2018,10,18,10,32,14.50
2018,10,18,10,33,14.50
2018,10,18,10,34,14.60
2018,10,18,10,35,14.70
2018,10,18,10,36,14.70
2018,10,18,10,37,14.80
2018,10,18,10,38,14.80
2018,10,18,10,39,14.70
2018,10,18,10,40,14.70
2018,10,18,10,41,14.70
2018,10,18,10,42,14.80
2018,10,18,10,43,14.80
2018,10,18,10,44,14.80
2018,10,18,10,45,14.90
2018,10,18,10,46,14.90
2018,10,18,10,47,14.90
2018,10,18,10,48,14.80
2018,10,18,10,49,14.80
2018,10,18,10,50,14.80
2018,10,18,10,51,14.80
2018,10,18,10,52,14.90
2018,10,18,10,53,15.00
2018,10,18,10,54,15.10
2018,10,18,10,55,15.10
2018,10,18,10,56,15.00
2018,10,18,10,57,14.90
2018,10,18,10,58,14.80
2018,10,18,10,59,14.90
2018,10,18,11,00,14.90
2018,10,18,11,01,14.90
2018,10,18,11,02,14.90
2018,10,18,11,03,14.80
2018,10,18,11,04,14.70
2018,10,18,11,05,14.70
2018,10,18,11,06,14.70
2018,10,18,11,07,14.80
2018,10,18,11,08,14.90
2018,10,18,11,09,15.00
2018,10,18,11,10,15.00
2018,10,18,11,11,15.10
2018,10,18,11,12,15.10
2018,10,18,11,13,15.10
2018,10,18,11,14,15.10
2018,10,18,11,15,15.20
2018,10,18,11,16,15.30
2018,10,18,11,17,15.30
2018,10,18,11,18,15.30
2018,10,18,11,19,15.30
2018,10,18,11,20,15.30
2018,10,18,11,21,15.30
2018,10,18,11,22,15.40
2018,10,18,11,23,15.40
2018,10,18,11,24,15.50
2018,10,18,11,25,15.50
2018,10,18,11,26,15.60
2018,10,18,11,27,15.50
2018,10,18,11,28,15.50
2018,10,18,11,29,15.40
2018,10,18,11,30,15.40
2018,10,18,11,31,15.30
2018,10,18,11,32,15.20
2018,10,18,11,33,15.20
2018,10,18,11,34,15.20
2018,10,18,11,35,15.30
2018,10,18,11,36,15.40
2018,10,18,11,37,15.40
2018,10,18,11,38,15.50
2018,10,18,11,39,15.50
2018,10,18,11,40,15.60
2018,10,18,11,41,15.70
2018,10,18,11,42,15.70
2018,10,18,11,43,15.60
2018,10,18,11,44,15.50
2018,10,18,11,45,15.50
2018,10,18,11,46,15.60
2018,10,18,11,47,15.60
2018,10,18,11,48,15.60
2018,10,18,11,49,15.60
2018,10,18,11,50,15.60
2018,10,18,11,51,15.50
2018,10,18,11,52,15.50
2018,10,18,11,53,15.70
2018,10,18,11,54,15.70
2018,10,18,11,55,15.80
2018,10,18,11,56,15.80
2018,10,18,11,57,15.80
2018,10,18,11,58,15.80
2018,10,18,11,59,15.90
2018,10,18,12,00,16.00
2018,10,18,12,01,16.10
2018,10,18,12,02,16.20
2018,10,18,12,03,16.30
2018,10,18,12,04,16.20
2018,10,18,12,05,16.10
2018,10,18,12,06,16.10
2018,10,18,12,07,16.10
2018,10,18,12,08,16.10
2018,10,18,12,09,16.20
2018,10,18,12,10,16.30
2018,10,18,12,11,16.40
2018,10,18,12,12,16.60
2018,10,18,12,13,16.60
2018,10,18,12,14,16.60
2018,10,18,12,15,16.50
2018,10,18,12,16,16.30
2018,10,18,12,17,16.20
2018,10,18,12,18,16.10
2018,10,18,12,19,16.10
2018,10,18,12,20,16.20
2018,10,18,12,21,16.30
2018,10,18,12,22,16.30
2018,10,18,12,23,16.30
2018,10,18,12,24,16.30
2018,10,18,12,25,16.30
2018,10,18,12,26,16.30
2018,10,18,12,27,16.20
2018,10,18,12,28,16.30
2018,10,18,12,29,16.30
2018,10,18,12,30,16.30
2018,10,18,12,31,16.20
2018,10,18,12,32,16.10
2018,10,18,12,33,16.00
2018,10,18,12,34,15.90
2018,10,18,12,35,15.80
2018,10,18,12,36,15.70
2018,10,18,12,37,15.60
2018,10,18,12,38,15.60
2018,10,18,12,39,15.60
2018,10,18,12,40,15.70
2018,10,18,12,41,15.70
2018,10,18,12,42,15.70
2018,10,18,12,43,15.70
2018,10,18,12,44,15.70
2018,10,18,12,45,15.70
2018,10,18,12,46,15.70
2018,10,18,12,47,15.70
2018,10,18,12,48,15.60
2018,10,18,12,49,15.50
2018,10,18,12,50,15.40
2018,10,18,12,51,15.50
2018,10,18,12,52,15.50
2018,10,18,12,53,15.60
2018,10,18,12,54,15.70
2018,10,18,12,55,15.80
2018,10,18,12,56,15.80
2018,10,18,12,57,15.80
2018,10,18,12,58,15.80
2018,10,18,12,59,15.80
2018,10,18,13,00,15.80
2018,10,18,13,01,15.80
2018,10,18,13,02,15.80
2018,10,18,13,03,15.80
2018,10,18,13,04,15.90
2018,10,18,13,05,15.90
2018,10,18,13,06,15.90
2018,10,18,13,07,15.90
2018,10,18,13,08,15.80
2018,10,18,13,09,15.80
2018,10,18,13,10,15.80
2018,10,18,13,11,15.80
2018,10,18,13,12,15.90
2018,10,18,13,13,15.90
2018,10,18,13,14,15.80
2018,10,18,13,15,15.80
2018,10,18,13,16,15.80
2018,10,18,13,17,15.90
2018,10,18,13,18,15.80
2018,10,18,13,19,15.90
2018,10,18,13,20,15.90
2018,10,18,13,21,15.90
2018,10,18,13,22,15.80
2018,10,18,13,23,15.70
2018,10,18,13,24,15.70
2018,10,18,13,25,15.70
2018,10,18,13,26,15.70
2018,10,18,13,27,15.80
2018,10,18,13,28,15.80
2018,10,18,13,29,15.80
2018,10,18,13,30,15.80
2018,10,18,13,31,15.80
2018,10,18,13,32,15.80
2018,10,18,13,33,15.80
2018,10,18,13,34,15.80
2018,10,18,13,35,15.70
2018,10,18,13,36,15.70
2018,10,18,13,37,15.70
2018,10,18,13,38,15.70
2018,10,18,13,39,15.70
2018,10,18,13,40,15.80
2018,10,18,13,41,15.80
2018,10,18,13,42,15.80
2018,10,18,13,43,15.80
2018,10,18,13,44,15.70
2018,10,18,13,45,15.70
2018,10,18,13,46,15.70
2018,10,18,13,47,15.70
2018,10,18,13,48,15.70
2018,10,18,13,49,15.70
2018,10,18,13,50,15.70
2018,10,18,13,51,15.80
2018,10,18,13,52,15.80
2018,10,18,13,53,15.90
2018,10,18,13,54,16.10
2018,10,18,13,55,16.20
2018,10,18,13,56,16.20
2018,10,18,13,57,16.30
2018,10,18,13,58,16.30
2018,10,18,13,59,16.30
2018,10,18,14,00,16.30
2018,10,18,14,01,16.30
2018,10,18,14,02,16.30
2018,10,18,14,03,16.30
2018,10,18,14,04,16.30
2018,10,18,14,05,16.30
2018,10,18,14,06,16.40
2018,10,18,14,07,16.40
2018,10,18,14,08,16.30
2018,10,18,14,09,16.20
2018,10,18,14,10,16.00
2018,10,18,14,11,15.90
2018,10,18,14,12,15.80
2018,10,18,14,13,15.80
2018,10,18,14,14,15.70
2018,10,18,14,15,15.70
2018,10,18,14,16,15.70
2018,10,18,14,17,15.60
2018,10,18,14,18,15.70
2018,10,18,14,19,15.70
2018,10,18,14,20,15.80
2018,10,18,14,21,15.80
2018,10,18,14,22,15.90
2018,10,18,14,23,15.90
2018,10,18,14,24,15.90
2018,10,18,14,25,15.90
2018,10,18,14,26,16.00
2018,10,18,14,27,16.00
2018,10,18,14,28,16.00
2018,10,18,14,29,16.10
2018,10,18,14,30,16.10
2018,10,18,14,31,16.10
2018,10,18,14,32,16.10
2018,10,18,14,33,16.10
2018,10,18,14,34,16.20
2018,10,18,14,35,16.20
2018,10,18,14,36,16.20
2018,10,18,14,37,16.20
2018,10,18,14,38,16.20
2018,10,18,14,39,16.20
2018,10,18,14,40,16.20
2018,10,18,14,41,16.20
2018,10,18,14,42,16.30
2018,10,18,14,43,16.40
2018,10,18,14,44,16.40
2018,10,18,14,45,16.40
2018,10,18,14,46,16.40
2018,10,18,14,47,16.50
2018,10,18,14,48,16.50
2018,10,18,14,49,16.40
2018,10,18,14,50,16.30
2018,10,18,14,51,16.30
2018,10,18,14,52,16.30
2018,10,18,14,53,16.40
2018,10,18,14,54,16.40
2018,10,18,14,55,16.40
2018,10,18,14,56,16.40
2018,10,18,14,57,16.40
2018,10,18,14,58,16.30
2018,10,18,14,59,16.30
2018,10,18,15,00,16.20
2018,10,18,15,01,16.10
2018,10,18,15,02,16.00
2018,10,18,15,03,15.90
2018,10,18,15,04,15.80
2018,10,18,15,05,15.70
2018,10,18,15,06,15.60
2018,10,18,15,07,15.60
2018,10,18,15,08,15.60
2018,10,18,15,09,15.70
2018,10,18,15,10,15.70
2018,10,18,15,11,15.70
2018,10,18,15,12,15.70
2018,10,18,15,13,15.70
2018,10,18,15,14,15.70
2018,10,18,15,15,15.70
2018,10,18,15,16,15.70
2018,10,18,15,17,15.70
2018,10,18,15,18,15.70
2018,10,18,15,19,15.70
2018,10,18,15,20,15.70
2018,10,18,15,21,15.80
2018,10,18,15,22,15.80
2018,10,18,15,23,15.90
2018,10,18,15,24,15.90
2018,10,18,15,25,15.80
2018,10,18,15,26,15.80
2018,10,18,15,27,15.80
2018,10,18,15,28,15.80
2018,10,18,15,29,15.70
2018,10,18,15,30,15.80
2018,10,18,15,31,15.80
2018,10,18,15,32,15.80
2018,10,18,15,33,15.80
2018,10,18,15,34,15.80
2018,10,18,15,35,15.90
2018,10,18,15,36,15.90
2018,10,18,15,37,15.90
2018,10,18,15,38,15.80
2018,10,18,15,39,15.80
2018,10,18,15,40,15.80
2018,10,18,15,41,15.70
2018,10,18,15,42,15.50
2018,10,18,15,43,15.40
2018,10,18,15,44,15.40
2018,10,18,15,45,15.40
2018,10,18,15,46,15.40
2018,10,18,15,47,15.40
2018,10,18,15,48,15.40
2018,10,18,15,49,15.40
2018,10,18,15,50,15.40
2018,10,18,15,51,15.40
2018,10,18,15,52,15.40
2018,10,18,15,53,15.40
2018,10,18,15,54,15.50
2018,10,18,15,55,15.60
2018,10,18,15,56,15.70
2018,10,18,15,57,15.70
2018,10,18,15,58,15.70
2018,10,18,15,59,15.70
2018,10,18,16,00,15.70
2018,10,18,16,01,15.70
2018,10,18,16,02,15.70
2018,10,18,16,03,15.70
2018,10,18,16,04,15.70
2018,10,18,16,05,15.70
2018,10,18,16,06,15.70
2018,10,18,16,07,15.70
2018,10,18,16,08,15.70
2018,10,18,16,09,15.70
2018,10,18,16,10,15.70
2018,10,18,16,11,15.70
2018,10,18,16,12,15.70
2018,10,18,16,13,15.70
2018,10,18,16,14,15.70
2018,10,18,16,15,15.70
2018,10,18,16,16,15.70
2018,10,18,16,17,15.80
2018,10,18,16,18,15.80
2018,10,18,16,19,15.80
2018,10,18,16,20,15.80
2018,10,18,16,21,15.80
2018,10,18,16,22,15.80
2018,10,18,16,23,15.80
2018,10,18,16,24,15.90
2018,10,18,16,25,15.90
2018,10,18,16,26,15.90
2018,10,18,16,27,15.90
2018,10,18,16,28,15.90
2018,10,18,16,29,15.80
2018,10,18,16,30,15.80
2018,10,18,16,31,15.80
2018,10,18,16,32,15.70
2018,10,18,16,33,15.60
2018,10,18,16,34,15.50
2018,10,18,16,35,15.30
2018,10,18,16,36,15.30
2018,10,18,16,37,15.30
2018,10,18,16,38,15.30
2018,10,18,16,39,15.30
2018,10,18,16,40,15.30
2018,10,18,16,41,15.20
2018,10,18,16,42,15.10
2018,10,18,16,43,15.10
2018,10,18,16,44,15.00
2018,10,18,16,45,15.00
2018,10,18,16,46,15.00
2018,10,18,16,47,14.90
2018,10,18,16,48,14.90
2018,10,18,16,49,15.00
2018,10,18,16,50,15.00
2018,10,18,16,51,15.00
2018,10,18,16,52,14.90
2018,10,18,16,53,14.90
2018,10,18,16,54,14.90
2018,10,18,16,55,14.90
2018,10,18,16,56,14.90
2018,10,18,16,57,14.90
2018,10,18,16,58,14.90
2018,10,18,16,59,14.90
2018,10,18,17,00,15.00
2018,10,18,17,01,15.10
2018,10,18,17,02,15.10
2018,10,18,17,03,15.10
2018,10,18,17,04,15.10
2018,10,18,17,05,15.10
2018,10,18,17,06,15.20
2018,10,18,17,07,15.10
2018,10,18,17,08,15.10
2018,10,18,17,09,15.10
2018,10,18,17,10,15.00
2018,10,18,17,11,15.00
2018,10,18,17,12,14.90
2018,10,18,17,13,14.90
2018,10,18,17,14,14.90
2018,10,18,17,15,14.80
2018,10,18,17,16,14.80
2018,10,18,17,17,14.80
2018,10,18,17,18,14.70
2018,10,18,17,19,14.70
2018,10,18,17,20,14.60
2018,10,18,17,21,14.60
2018,10,18,17,22,14.50
2018,10,18,17,23,14.40
2018,10,18,17,24,14.40
2018,10,18,17,25,14.30
2018,10,18,17,26,14.20
2018,10,18,17,27,14.20
2018,10,18,17,28,14.10
2018,10,18,17,29,14.00
2018,10,18,17,30,14.00
2018,10,18,17,31,13.90
2018,10,18,17,32,13.90
2018,10,18,17,33,13.90
2018,10,18,17,34,13.90
2018,10,18,17,35,13.80
2018,10,18,17,36,13.80
2018,10,18,17,37,13.70
2018,10,18,17,38,13.60
2018,10,18,17,39,13.50
2018,10,18,17,40,13.50
2018,10,18,17,41,13.40
2018,10,18,17,42,13.40